Regional Weather Roundup
Issued by NWS

Home | Current Version | Previous Version | Graphics & Text | Print | Product List | Glossary On
Versions: 1 2 3 4 5 6 7 8 9 10 11 12 13 14 15 16 17 18 19 20 21 22 23 24 25 26 27 28 29 30 31 32 33 34 35 36 37 38 39 40 41 42 43 44 45 46 47 48 49 50
000
ASUS45 KBOU 240707
RWRCO

WEATHER ROUNDUP FOR COLORADO
NATIONAL WEATHER SERVICE DENVER/BOULDER CO
100 AM MDT THU JUL 24 2014

NOTE: "FAIR" INDICATES FEW OR NO CLOUDS BELOW 12000 FEET WITH NO
SIGNIFICANT WEATHER AND/OR OBSTRUCTIONS TO VISIBILITY.

COZ001>005-013-030-031-240800-
...NORTHWEST COLORADO...

CITY           SKY/WX    TMP DP  RH WIND       PRES   REMARKS
CRAIG          MOCLDY    65  46  50 S6        30.25F
HAYDEN         MOCLDY    70  43  37 SE10      30.30F
MEEKER         PTCLDY    66  41  40 NE5       30.28S
MOUNT WERNER   NOT AVBL
STEAMBOAT SPGS MOCLDY    68  44  42 E7        30.34F
WALDEN         PTCLDY    59  39  47 NW5       30.45S
$$

COZ006>008-011-240800-
...WEST CENTRAL VALLEYS...

CITY           SKY/WX    TMP DP  RH WIND       PRES   REMARKS
GRAND JUNCTION PTCLDY    84  40  21 E9        30.13R
MONTROSE       MOCLDY    78  44  29 SE8       30.26R
EAGLE          PTCLDY    64  46  52 CALM      30.36S
RIFLE          PTCLDY    74  45  35 CALM      30.22S
DELTA          MOCLDY    82  43  24 W6        30.21R
NUCLA          MOCLDY    81  46  30 S13G23    30.31R
$$

COZ017>023-064>068-240800-
...SOUTHWEST COLORADO...

CITY           SKY/WX    TMP DP  RH WIND       PRES   REMARKS
DURANGO        CLOUDY    67  51  56 NE22      30.43S
CORTEZ         CLOUDY    79  49  34 SE15G24   30.32S
PAGOSA SPRINGS RAIN      61  55  79 N3        30.54R
TELLURIDE      PTCLDY    64  45  48 SE17      30.57R
WOLF CREEK PAS NOT AVBL
$$

COZ009-010-012-014-032>034-037-058>063-240800-
...CENTRAL COLORADO...

CITY           SKY/WX    TMP DP  RH WIND       PRES   REMARKS
ASPEN          MOCLDY    71  41  33 SE6       30.42S
BUENA VISTA    MOCLDY    57  45  63 CALM      30.52S
COPPER MTN     MOCLDY    59  36  41 S23G32    30.77F
BERTHOUD PASS  FAIR      48  34  57 SW14      30.83F
COTTONWOOD PAS MOCLDY    61  39  44 S3        30.66S
GUNNISON       CLOUDY    66  45  45 E9        30.48F
KREMMLING      PTCLDY    59  41  51 CALM      30.41S
LEADVILLE      PTCLDY    47  44  90 CALM      30.64F
MONARCH PASS   CLOUDY    50  41  71 SE7G17    30.92F
SALIDA         MOCLDY   N/A N/A N/A N8        30.54F
SUNLIGHT       LGT RAIN  59  43  55 S3        30.68F
WILKERSON PASS PTCLDY    54  37  54 S9G18     30.76F
$$

COZ069>075-240800-
...SAN LUIS VALLEY/SANGRE DE CRISTO MOUNTAINS...

CITY           SKY/WX    TMP DP  RH WIND       PRES   REMARKS
ALAMOSA        MOCLDY    60  48  64 W7        30.45F
LA VETA PASS   MOCLDY    59  34  38 W5        30.66F
SAGUACHE       PTCLDY    61  45  55 E8        30.52F
$$

COZ035-036-038>040-240800-
...NORTHERN COLORADO FRONT RANGE...

CITY           SKY/WX    TMP DP  RH WIND       PRES   REMARKS
DENVER INTL AP PTCLDY    77  45  32 S15       30.18F
DMNS CITY PARK   N/A     76  46  33 S10       30.17F
AURORA         PTCLDY    71  47  43 S13       30.22F
FRONT RANGE AP NOT AVBL
ERIE MUNI ARPT MOCLDY    68  49  50 CALM      30.16S
BOULDER MUN AP MOCLDY    72  46  40 SE5       30.18R
CENTENNIAL     CLOUDY    74  45  35 SE14      30.24F
BROOMFIELD     MOCLDY    77  43  29 W5        30.20F
FORT COLLINS   CLEAR     66  54  63 N8        30.16S
LONGMONT       CLEAR     67  52  57 CALM      30.17S
$$

COZ041-046-047-076>085-087-088-240800-
...PIKES PEAK/PALMER DIVIDE AND SOUTHERN FOOTHILLS...

CITY           SKY/WX    TMP DP  RH WIND       PRES   REMARKS
COLO. SPRINGS  CLOUDY    70  54  56 N3        30.31F
A. F. ACADEMY  MOCLDY    63  49  59 N7        30.34F
ELLICOTT       CLOUDY    69  62  78 CALM      30.30F
FALCON         CLOUDY    67  55  65 SW3       30.37F
FORT CARSON    CLOUDY    69  50  50 NW8       30.28F
LIMON          PTCLDY    67  63  87 SE6       30.25F
MONUMENT HILL  CLOUDY    66  43  42 S8        30.36F
TRINIDAD       PTCLDY    67  49  52 SW7       30.30F
$$

COZ042>045-048>051-090-091-240800-
...NORTHEAST COLORADO...

CITY           SKY/WX    TMP DP  RH WIND       PRES   REMARKS
GREELEY ARPT   CLEAR     64  50  59 E8        30.14F
AKRON          PTCLDY    73  63  70 S18G25    30.18F
BURLINGTON     CLEAR     72  66  81 SE15      30.20F
WRAY             N/A     71  63  74 NE7       30.16F
STERLING       PTCLDY    73  64  73 SW6       30.12F
HOLYOKE        CLEAR     72  66  83 SE14      30.15F
FORT MORGAN    PTCLDY    69  59  71 SE8       30.17S
$$

COZ086-089-092>099-240800-
...SOUTHEAST COLORADO...

CITY           SKY/WX    TMP DP  RH WIND       PRES   REMARKS
PUEBLO         MOCLDY    72  57  59 W6        30.20R
LA JUNTA       MOCLDY    75  54  47 SW8       30.17F
LAMAR          PTCLDY    73  62  68 E9        30.15R
SPRINGFIELD      N/A     70  55  59 SW8       30.22F
$$



USA.gov is the U.S. government's official web portal to all federal, state and local government web resources and services.